DW0226 Weather Reports


Display with metric or nautical units.
time (UTC)temp
F
wind
direction
speed
MPH
gust
MPH
rain 1hr
in
rain 24hr
in
rain mn
in
humidity
%
barometer
mb
20260504004032 50 220 1.0 2.0 0.00 0.00 0.00 66 1013.9
20260504003020 51 220 0.0 2.0 0.00 0.00 0.00 63 1013.7
20260504002029 53 220 0.0 2.0 0.00 0.00 0.00 61 1013.6
20260504001036 54 220 0.0 2.0 0.00 0.00 0.00 57 1013.6
20260504000046 56 221 1.0 2.0 0.00 0.00 0.00 54 1013.4
20260503235039 58 215 1.0 2.0 0.00 0.00 0.00 51 1013.4
20260503234027 60 217 1.0 2.0 0.00 0.00 0.00 48 1013.2
20260503233035 61 211 0.0 2.0 0.00 0.00 0.00 43 1013.2
20260503232021 61 263 0.0 3.0 0.00 0.00 0.00 41 1013.1
20260503231036 61 269 2.0 6.0 0.00 0.00 0.00 40 1013.1
20260503230024 61 259 3.0 6.0 0.00 0.00 0.00 38 1013.2
20260503225031 61 258 6.0 11.0 0.00 0.00 0.00 38 1013.2
20260503224021 62 292 3.0 7.0 0.00 0.00 0.00 40 1013.3
20260503223031 62 248 4.0 11.0 0.00 0.00 0.00 39 1013.4
20260503222020 62 272 4.0 11.0 0.00 0.00 0.00 37 1013.3
20260503221029 62 275 7.0 16.0 0.00 0.00 0.00 36 1013.5
20260503220020 62 290 3.0 10.0 0.00 0.00 0.00 38 1013.4
20260503215026 62 267 6.0 11.0 0.00 0.00 0.00 37 1013.5
20260503214054 62 250 5.0 11.0 0.00 0.00 0.00 38 1013.4
20260503213024 62 286 8.0 12.0 0.00 0.00 0.00 37 1013.4
20260503212030 62 264 7.0 11.0 0.00 0.00 0.00 37 1013.5
20260503211025 62 275 7.0 14.0 0.00 0.00 0.00 38 1013.3
20260503210035 62 245 5.0 15.0 0.00 0.00 0.00 41 1013.5
20260503205021 62 279 5.0 15.0 0.00 0.00 0.00 38 1013.5
20260503204034 62 255 11.0 15.0 0.00 0.00 0.00 36 1013.4
20260503203022 62 308 6.0 14.0 0.00 0.00 0.00 38 1013.6
20260503202028 61 212 8.0 14.0 0.00 0.00 0.00 38 1013.6
20260503201039 61 271 7.0 14.0 0.00 0.00 0.00 39 1013.7
20260503200033 61 287 10.0 14.0 0.00 0.00 0.00 37 1013.8
20260503195023 61 272 8.0 12.0 0.00 0.00 0.00 38 1014.1
20260503194032 61 238 7.0 17.0 0.00 0.00 0.00 41 1014.2
20260503193023 61 227 8.0 15.0 0.00 0.00 0.00 39 1014.3
20260503192033 61 283 4.0 16.0 0.00 0.00 0.00 41 1014.5
20260503191023 61 40 7.0 13.0 0.00 0.00 0.00 40 1014.7
20260503190052 60 229 7.0 12.0 0.00 0.00 0.00 41 1014.7
20260503185021 60 292 5.0 13.0 0.00 0.00 0.00 40 1014.9
20260503184032 60 317 7.0 17.0 0.00 0.00 0.00 38 1015.0
20260503183020 60 286 8.0 17.0 0.00 0.00 0.00 39 1015.0
20260503182028 60 301 6.0 14.0 0.00 0.00 0.00 41 1015.0
20260503181037 59 301 6.0 15.0 0.00 0.00 0.00 43 1015.0
20260503180030 59 228 10.0 16.0 0.00 0.00 0.00 45 1015.1
20260503175020 58 294 6.0 17.0 0.00 0.00 0.00 44 1015.2
20260503174049 59 302 8.0 16.0 0.00 0.00 0.00 41 1015.1
20260503173019 58 264 4.0 15.0 0.00 0.00 0.00 43 1015.2
20260503172031 57 246 11.0 16.0 0.00 0.00 0.00 44 1015.3
20260503171021 57 250 7.0 15.0 0.00 0.00 0.00 46 1015.6
20260503131041 50 266 7.0 17.0 0.00 0.00 0.00 53 1016.0
20260503081020 47 269 2.0 12.0 0.00 0.00 0.00 64 1012.9
20260503072025 48 290 1.0 5.0 0.00 0.00 0.00 64 1012.5
20260503071032 48 302 2.0 9.0 0.00 0.00 0.00 63 1012.2
20260503055043 50 315 0.0 4.0 0.00 0.00 0.00 65 1011.7
20260503054029 50 298 0.0 3.0 0.00 0.00 0.00 64 1012.0
20260503053022 50 306 0.0 3.0 0.00 0.00 0.00 64 1012.1
20260503052032 50 306 0.0 3.0 0.00 0.00 0.00 64 1012.1
20260503051019 50 291 1.0 3.0 0.00 0.00 0.00 64 1011.9
20260503050027 50 292 1.0 4.0 0.00 0.00 0.00 63 1011.9
20260503045017 51 298 1.0 4.0 0.00 0.00 0.00 62 1011.9
20260503044028 51 296 1.0 3.0 0.00 0.00 0.00 63 1011.8
20260503043019 51 312 1.0 3.0 0.00 0.00 0.00 62 1011.9
20260503042027 51 309 0.0 4.0 0.00 0.00 0.00 62 1011.9
20260503041018 51 301 0.0 2.0 0.00 0.00 0.00 63 1011.8
20260503040029 51 301 0.0 1.0 0.00 0.00 0.00 63 1011.7
20260503035037 51 301 0.0 3.0 0.00 0.00 0.00 62 1011.9
20260503034022 51 319 0.0 1.0 0.00 0.00 0.00 64 1011.6
20260503033037 51 303 0.0 2.0 0.00 0.00 0.00 65 1011.6
20260503032023 51 303 0.0 2.0 0.00 0.00 0.00 65 1011.5
20260503031031 50 295 0.0 3.0 0.00 0.00 0.00 67 1011.3
20260503030027 50 292 0.0 3.0 0.00 0.00 0.00 67 1011.4
20260503025034 50 259 0.0 0.0 0.00 0.00 0.00 70 1011.5
20260503024024 49 259 0.0 1.0 0.00 0.00 0.00 72 1011.5
20260503023051 48 259 0.0 0.0 0.00 0.00 0.00 78 1011.4
20260503022019 48 259 0.0 0.0 0.00 0.00 0.00 79 1011.5
20260503021026 49 259 0.0 0.0 0.00 0.00 0.00 80 1011.4
20260503020035 49 259 0.0 0.0 0.00 0.00 0.00 80 1011.4
20260503015021 49 259 0.0 0.0 0.00 0.00 0.00 79 1011.4
20260503014029 49 259 0.0 0.0 0.00 0.00 0.00 79 1011.5
20260503013024 49 259 0.0 0.0 0.00 0.00 0.00 78 1011.4
20260503012033 50 259 0.0 0.0 0.00 0.00 0.00 78 1011.3
20260503011040 50 259 0.0 0.0 0.00 0.00 0.00 76 1011.3
20260503010028 51 259 0.0 0.0 0.00 0.00 0.00 75 1011.1
20260503005020 51 259 0.0 0.0 0.00 0.00 0.00 73 1011.1